TimeCST,TemperatureF,Dew PointF,Humidity,Sea Level PressureIn,VisibilityMPH,Wind Direction,Wind SpeedMPH,Gust SpeedMPH,PrecipitationIn,Events,Conditions,WindDirDegrees,DateUTC
12:15 AM,31.1,30.2,96,29.60,7.0,NNW,11.5,-,N/A,,Overcast,330,2013-02-27 06:15:00
12:35 AM,31.1,30.2,96,29.60,7.0,NNW,15.0,-,N/A,,Overcast,340,2013-02-27 06:35:00
12:55 AM,31.1,30.0,96,29.61,7.0,NNW,15.0,19.6,N/A,,Overcast,330,2013-02-27 06:55:00
1:15 AM,31.1,30.0,96,29.62,5.0,NNW,13.8,-,N/A,,Overcast,330,2013-02-27 07:15:00
1:35 AM,30.7,29.8,96,29.62,5.0,NNW,12.7,-,N/A,,Overcast,340,2013-02-27 07:35:00
1:55 AM,30.7,29.8,96,29.62,7.0,NNW,10.4,-,N/A,,Overcast,330,2013-02-27 07:55:00
2:15 AM,30.6,29.7,96,29.62,7.0,NNW,10.4,-,N/A,,Overcast,330,2013-02-27 08:15:00
2:35 AM,30.2,29.3,96,29.62,5.0,NW,10.4,-,N/A,,Overcast,320,2013-02-27 08:35:00
2:55 AM,30.2,29.3,96,29.62,5.0,NW,9.2,-,N/A,,Overcast,320,2013-02-27 08:55:00
3:15 AM,30.0,29.1,96,29.62,7.0,NW,10.4,-,N/A,,Overcast,320,2013-02-27 09:15:00
3:35 AM,30.0,29.1,96,29.63,7.0,NW,9.2,-,N/A,,Overcast,320,2013-02-27 09:35:00
3:55 AM,29.8,28.8,96,29.64,10.0,NW,9.2,-,N/A,,Overcast,320,2013-02-27 09:55:00
4:15 AM,30.2,28.4,93,29.64,7.0,NW,9.2,-,N/A,,Overcast,310,2013-02-27 10:15:00
4:35 AM,29.8,28.9,96,29.64,5.0,NW,8.1,-,N/A,,Overcast,310,2013-02-27 10:35:00
4:55 AM,29.8,28.9,96,29.64,5.0,NW,8.1,-,N/A,,Overcast,310,2013-02-27 10:55:00
5:15 AM,29.7,28.9,97,29.64,5.0,NW,9.2,-,N/A,,Overcast,310,2013-02-27 11:15:00
5:35 AM,29.7,28.9,97,29.64,5.0,NW,9.2,-,N/A,,Overcast,320,2013-02-27 11:35:00
5:55 AM,29.7,28.9,97,29.64,5.0,NW,12.7,-,N/A,,Overcast,320,2013-02-27 11:55:00
6:15 AM,29.7,28.9,97,29.64,5.0,NW,10.4,-,N/A,,Overcast,320,2013-02-27 12:15:00
6:35 AM,29.7,28.9,97,29.65,4.0,NW,9.2,-,N/A,,Overcast,320,2013-02-27 12:35:00
6:55 AM,29.7,28.9,97,29.66,3.0,NW,9.2,-,N/A,,Overcast,320,2013-02-27 12:55:00
7:15 AM,29.7,29.1,98,29.66,2.5,NW,6.9,-,N/A,,Overcast,310,2013-02-27 13:15:00
7:35 AM,29.7,29.3,99,29.67,3.0,NW,8.1,-,N/A,,Overcast,320,2013-02-27 13:35:00
7:55 AM,29.7,28.8,96,29.67,3.0,NW,8.1,-,N/A,,Overcast,310,2013-02-27 13:55:00
8:15 AM,29.7,28.4,95,29.68,5.0,WNW,8.1,-,N/A,,Overcast,300,2013-02-27 14:15:00
8:35 AM,29.8,28.4,94,29.68,5.0,WNW,9.2,-,N/A,,Overcast,300,2013-02-27 14:35:00
8:55 AM,30.2,28.4,93,29.69,3.0,WNW,8.1,-,N/A,Snow,Light Snow,300,2013-02-27 14:55:00
9:15 AM,30.2,29.5,97,29.69,1.2,WNW,6.9,-,N/A,Snow,Light Snow,290,2013-02-27 15:15:00
9:35 AM,30.7,29.5,95,29.69,1.0,WNW,8.1,-,N/A,Snow,Light Snow,300,2013-02-27 15:35:00
9:55 AM,30.9,29.3,94,29.69,1.2,WNW,6.9,-,N/A,Snow,Light Snow,300,2013-02-27 15:55:00
10:15 AM,31.5,29.3,92,29.69,1.2,WNW,9.2,-,N/A,Snow,Light Snow,300,2013-02-27 16:15:00
10:35 AM,32.0,29.5,90,29.69,1.2,WNW,10.4,16.1,N/A,Snow,Light Snow,300,2013-02-27 16:35:00
10:55 AM,32.0,29.7,91,29.69,1.5,WNW,10.4,16.1,N/A,Snow,Light Snow,300,2013-02-27 16:55:00
11:15 AM,32.0,29.7,91,29.69,1.5,NW,11.5,-,N/A,Snow,Light Snow,310,2013-02-27 17:15:00
11:35 AM,32.0,29.7,91,29.69,1.8,WNW,11.5,-,N/A,Snow,Light Snow,300,2013-02-27 17:35:00
11:55 AM,32.0,29.8,92,29.69,1.2,WNW,11.5,16.1,N/A,Snow,Light Snow,300,2013-02-27 17:55:00
12:15 PM,32.0,29.8,92,29.69,2.0,WNW,11.5,-,N/A,Snow,Light Snow,300,2013-02-27 18:15:00
12:35 PM,32.0,30.0,92,29.69,2.0,WNW,15.0,-,N/A,Snow,Light Snow,300,2013-02-27 18:35:00
12:55 PM,32.0,30.0,92,29.69,2.0,WNW,11.5,-,N/A,Snow,Light Snow,300,2013-02-27 18:55:00
1:15 PM,32.0,29.8,92,29.69,3.0,WNW,10.4,18.4,N/A,Snow,Light Snow,300,2013-02-27 19:15:00
1:35 PM,32.0,29.8,92,29.69,4.0,WNW,12.7,-,N/A,Snow,Light Snow,300,2013-02-27 19:35:00
1:55 PM,32.0,30.0,92,29.70,1.0,WNW,15.0,-,0.01,Snow,Light Snow,300,2013-02-27 19:55:00
2:15 PM,32.0,30.2,93,29.70,1.5,WNW,13.8,-,N/A,Snow,Light Snow,290,2013-02-27 20:15:00
2:35 PM,32.0,30.2,93,29.71,1.8,WNW,10.4,-,N/A,Snow,Light Snow,300,2013-02-27 20:35:00
2:55 PM,32.0,30.0,92,29.71,2.0,WNW,12.7,-,N/A,Snow,Light Snow,300,2013-02-27 20:55:00
3:15 PM,32.0,30.6,94,29.72,1.8,WNW,11.5,18.4,N/A,Snow,Light Snow,300,2013-02-27 21:15:00
3:35 PM,32.0,31.1,96,29.73,1.2,WNW,9.2,-,N/A,Snow,Light Snow,290,2013-02-27 21:35:00
3:55 PM,32.2,31.6,98,29.73,1.5,WNW,10.4,-,N/A,Snow,Light Snow,300,2013-02-27 21:55:00
4:15 PM,32.0,30.4,94,29.74,3.0,WNW,11.5,-,N/A,Snow,Light Snow,300,2013-02-27 22:15:00
4:35 PM,31.8,30.7,96,29.74,4.0,WNW,11.5,17.3,N/A,Snow,Light Snow,300,2013-02-27 22:35:00
4:55 PM,31.8,30.7,96,29.75,4.0,WNW,13.8,17.3,N/A,Snow,Light Snow,290,2013-02-27 22:55:00
5:15 PM,31.6,30.9,97,29.75,7.0,WNW,10.4,-,N/A,Snow,Light Snow,300,2013-02-27 23:15:00
5:35 PM,31.6,30.6,96,29.76,7.0,WNW,10.4,-,N/A,Snow,Light Snow,300,2013-02-27 23:35:00
5:55 PM,31.5,30.2,95,29.77,7.0,WNW,12.7,17.3,N/A,Snow,Light Snow,300,2013-02-27 23:55:00
6:15 PM,31.1,30.2,96,29.77,7.0,WNW,12.7,16.1,N/A,,Overcast,300,2013-02-28 00:15:00
6:35 PM,31.1,30.6,98,29.78,7.0,WNW,10.4,-,N/A,Snow,Light Snow,300,2013-02-28 00:35:00
6:55 PM,31.1,30.6,98,29.79,5.0,WNW,13.8,-,N/A,Snow,Light Snow,290,2013-02-28 00:55:00
7:15 PM,31.1,30.6,98,29.79,2.5,WNW,11.5,-,N/A,Snow,Light Snow,290,2013-02-28 01:15:00
7:35 PM,31.1,30.6,98,29.79,4.0,WNW,12.7,18.4,N/A,Snow,Light Snow,290,2013-02-28 01:35:00
7:55 PM,32.0,30.2,93,29.79,4.0,WNW,12.7,-,N/A,Snow,Light Snow,290,2013-02-28 01:55:00
8:15 PM,31.1,30.6,98,29.79,5.0,WNW,11.5,-,N/A,Snow,Light Snow,300,2013-02-28 02:15:00
8:35 PM,31.1,30.2,96,29.80,5.0,WNW,10.4,-,N/A,Snow,Light Snow,300,2013-02-28 02:35:00
8:55 PM,30.9,30.2,97,29.80,5.0,WNW,9.2,-,N/A,Snow,Light Snow,300,2013-02-28 02:55:00
9:15 PM,31.1,30.4,97,29.81,5.0,WNW,10.4,-,N/A,Snow,Light Snow,300,2013-02-28 03:15:00
9:35 PM,31.1,30.6,98,29.81,7.0,WNW,10.4,-,N/A,,Overcast,290,2013-02-28 03:35:00
9:55 PM,31.1,30.2,96,29.81,7.0,WNW,9.2,-,N/A,,Overcast,300,2013-02-28 03:55:00
10:15 PM,31.1,30.4,97,29.82,4.0,WNW,10.4,-,N/A,,Overcast,300,2013-02-28 04:15:00
10:35 PM,30.7,30.2,98,29.81,3.0,WNW,9.2,-,N/A,Snow,Light Snow,290,2013-02-28 04:35:00
10:55 PM,30.7,30.2,98,29.82,4.0,WNW,9.2,-,N/A,Snow,Light Snow,300,2013-02-28 04:55:00
11:15 PM,30.9,30.0,96,29.82,10.0,WNW,9.2,-,N/A,,Overcast,300,2013-02-28 05:15:00
11:35 PM,30.9,30.0,96,29.81,10.0,WNW,9.2,-,N/A,,Overcast,300,2013-02-28 05:35:00
11:55 PM,30.9,30.0,96,29.82,10.0,WNW,8.1,-,N/A,,Overcast,300,2013-02-28 05:55:00